星链-37129(STARLINK-37129)

导读

STARLINK-37129(NORAD编号68274)是SpaceX星链星座中的一颗低轨通信卫星,属于SpaceX打造的卫星互联网项目,旨在提供全球覆盖的高速互联网服务。 它运行在约550公里的近地轨道,作为第二代星链卫星,配备了相控阵天线与卫星间激光链路,单链路最高速率可达200Gbps,可动态组网调度,大幅减少对地面站的依赖。依托低轨部署,该卫星支持将端到端时延压缩至25毫秒左右,可满足实时通信需求,同时依托氩气推进器完成轨道机动与离轨处置,配合星座全球覆盖的组网目标。

基本信息
目录编号:
68274
目录名称:
STARLINK-37129
国际标识:
2026-055N
轨道中心:
EARTH
卫星名称:
星链-37129
卫星全名:
星链-37129(STARLINK-37129)
卫星状态:
在轨 (已飞行176 天)
发射日期:
2026-03-19 UTC
国别 :
美国 (US)
星等 :
--
轨道信息
数据来源 国际轨道数据 AOE轨道数据
星历时间 2026-09-10T19:58:59+0800
17小时前
查看轨道信息
2026-09-04T16:00:00+0800
6天前
查看轨道信息
半长轴 6840.871km 6840.896km
偏心率 0.0000638 0.0001146
轨道倾角 53.158° 53.159°
近地点辐角 104.895° 50.491°
升交点赤经 176.762° 205.594°
平近点角 255.213° 71.060°
近地点 462.297km 461.975km
远地点 463.171km 463.543km
周期 93.848分钟 93.849分钟
每日圈数 15.343898 15.343815
详细信息
固有亮度:
5
最大亮度:
2.5
卫星平台:
Starlink V1.0
覆盖范围:
全球
运营商:
太空探索技术公司
运营商所在国:
美国
制造商(研发单位):
太空探索技术公司
制造商所在国:
美国
使用方式:
暂无
卫星简介
Starlink 计划是 SpaceX 推出的全球卫星互联网项目,通过发射低轨道卫星,为全球尤其是偏远地区提供高速、低延迟的互联网服务。自 2019 年起,Starlink 已部署数千颗卫星,旨在缩小全球数字鸿沟,推动互联网普及。该项目还为军事、航空等行业提供通信支持,带来广泛经济效益。
2D轨道图
3D轨道图
轨道高度分析图
轨道倾角分析图
轨道综合分析图
查看轨道综合分析图
与全量物体交会距离演化趋势
与全量物体交会风险概率演化趋势